Regional Weather Roundup
Issued by NWS

Home | Current Version | Previous Version | Graphics & Text | Print | Product List | Glossary Off
Versions: 1 2 3 4 5 6 7 8 9 10 11 12 13 14 15 16 17 18 19 20 21 22 23 24 25 26 27 28 29 30 31 32 33 34 35 36 37 38 39 40 41 42 43 44 45 46 47 48 49 50

000
ASUS43 KDMX 211307
RWRIA

WEATHER ROUNDUP FOR IOWA
NATIONAL WEATHER SERVICE DES MOINES IA
800 AM CDT THU MAY 21 2015

NOTE: "FAIR" INDICATES FEW OR NO CLOUDS BELOW 12,000 FEET WITH NO
SIGNIFICANT WEATHER AND/OR OBSTRUCTIONS TO VISIBILITY.

* - THESE STATIONS ARE NOT NWS STATIONS...THUS NOT UNDER NWS
QUALITY CONTROL.  THEY ALSO DO NOT REPORT WEATHER SUCH
AS PRECIPITATION OR FOG.

IAZ001>003-012>014-020>022-031>034-043>046-211400-
   NORTHWEST IOWA

CITY           SKY/WX    TMP DP  RH WIND       PRES   REMARKS
CARROLL *      SUNNY     48  41  76 W15G21    30.20S
CHEROKEE *     SUNNY     46  43  87 W8        30.21R
DENISON *      SUNNY     45  45 100 SW6       30.22S
LE MARS *      SUNNY     48  43  81 W7        30.24R
ORANGE CITY *  SUNNY     45  41  87 W9        30.20S
SHELDON *      SUNNY     48  39  71 W8        30.18S
SIOUX CITY     SUNNY     50  40  68 W9        30.24R
SPENCER        SUNNY     50  40  68 W12       30.17S
STORM LAKE *   SUNNY     45  41  87 W16       30.20S
$$

IAZ055>058-069>071-079>083-090>094-211400-
   SOUTHWEST IOWA

CITY           SKY/WX    TMP DP  RH WIND       PRES   REMARKS
ATLANTIC *     SUNNY     46  43  87 SW6       30.25R
AUDUBON *      SUNNY     46  43  87 NW3       30.24R
CLARINDA *     SUNNY     46  43  87 W5        30.29S
COUNCIL BLFS * SUNNY     46  46 100 W8        30.27R
CRESTON *      SUNNY     46  45  93 W9        30.25S
HARLAN  *      SUNNY     46  46 100 W12       30.28R
LAMONI         SUNNY     48  42  80 W9        30.25R
RED OAK *      SUNNY     46  43  87 W6        30.27S
SHENANDOAH *   SUNNY     46  43  87 W6        30.28S
$$

IAZ047>049-059>061-072>074-084-211400-
   CENTRAL IOWA

CITY           SKY/WX    TMP DP  RH WIND       PRES   REMARKS
AMES           SUNNY     47  41  80 W13       30.18S
ANKENY *       SUNNY     48  43  81 W12       30.20F
CHARITON *     SUNNY     45  41  87 W9        30.23S
DES MOINES     SUNNY     48  41  76 W8        30.21F
GRINNELL*      SUNNY     46  41  81 W12       30.19F
KNOXVILLE *    SUNNY     46  41  81 W10       30.21S HAZE
MARSHALLTOWN   SUNNY     47  41  80 W10       30.17S
PELLA *        SUNNY     48  45  87 W7        30.23R
PERRY *          N/A     48  43  81 W16       30.20F
$$

IAZ004>006-015-016-023>025-035-036-211400-
   NORTH CENTRAL IOWA

CITY           SKY/WX    TMP DP  RH WIND       PRES   REMARKS
ALGONA *       SUNNY     48  41  76 W12       30.15R
CLARION *      SUNNY     46  43  87 W9        30.16S
ESTHERVILLE    SUNNY     52  35  52 W22       30.13S
FORT DODGE *   SUNNY     46  39  76 SW7       30.17F
MASON CITY     SUNNY     48  39  71 W14       30.13F
FOREST CITY *  SUNNY     46  39  76 W7        30.13S
IOWA FALLS *     N/A     46  41  81 W15       30.17S
$$

IAZ007>011-017>019-026>030-037>042-050>054-066-211400-
   NORTHEAST IOWA

CITY           SKY/WX    TMP DP  RH WIND       PRES   REMARKS
CEDAR RAPIDS   SUNNY     46  42  86 W9        30.16S
CHARLES CITY * SUNNY     46  43  87 W14       30.14R
CLINTON *      MOSUNNY   46  39  76 W9        30.19R
DECORAH *      SUNNY     46  41  81 W8        30.10F
DUBUQUE        MOSUNNY   46  40  79 W15       30.13F
MONTICELLO *   SUNNY     48  43  81 W9        30.15S
OELWEIN *      SUNNY     45  41  87 W14       30.14F
WATERLOO       SUNNY     47  40  76 W10       30.14S
$$

IAZ064-065-067-068-078-211400-
   EAST CENTRAL IOWA

CITY           SKY/WX    TMP DP  RH WIND       PRES   REMARKS
DAVENPORT      MOSUNNY   47  40  76 W10       30.18S
IOWA CITY      SUNNY     46  42  86 W6        30.20S
MT. PLEASANT * SUNNY     46  41  81 W9        30.22R
MUSCATINE *    SUNNY     48  43  81 W12       30.20S
QUAD CITIES    SUNNY     47  39  74 W9        30.18S
$$

IAZ062-063-075>077-085>089-095>099-211400-
   SOUTHEAST IOWA

CITY           SKY/WX    TMP DP  RH WIND       PRES   REMARKS
BURLINGTON     SUNNY     46  43  89 NW8       30.21R
FAIRFIELD *    MOSUNNY   45  43  93 W8        30.22S
FORT MADISON *   N/A     46  45  93 NW7       30.23R
KEOKUK *       SUNNY     46  45  93 NW5       30.22S
OSKALOOSA *      N/A     45  45 100 W12       30.22S
CENTERVILLE *  SUNNY     45  45 100 W8        30.25S
OTTUMWA        SUNNY     44  43  96 W8        30.21S
WASHINGTON *   SUNNY     46 N/A N/A W10       30.21R
$$

ABBREVIATIONS USED IN REMARKS
   TC - TEMPERATURES IN CELSIUS
  WCI - WIND CHILL INDEX
   HX - HEAT INDEX
  VSB - VISIBILITY
$$



USA.gov is the U.S. government's official web portal to all federal, state and local government web resources and services.